Hourly Weather Bolshie Kurguzi

Today, 2 August, Monday

Time Temperature Precipitation Wind Pressure Humidity
00:00 +18°C° 0 mm 2 mps 748 mmHg 67%
01:00 +18°C° 0 mm 2 mps 748 mmHg 68%
02:00 +18°C° 0 mm 2 mps 748 mmHg 69%
03:00 +18°C° 0 mm 2 mps 748 mmHg 71%
04:00 +19°C° 0 mm 2 mps 748 mmHg 71%
05:00 +19°C° 0 mm 2 mps 749 mmHg 70%
06:00 +20°C° 0 mm 2 mps 749 mmHg 69%
07:00 +23°C° 0 mm 2 mps 749 mmHg 63%
08:00 +25°C° 0 mm 3 mps 749 mmHg 58%
09:00 +28°C° 0 mm 3 mps 749 mmHg 50%
10:00 +29°C° 0 mm 3 mps 749 mmHg 46%
11:00 +30°C° 0 mm 3 mps 748 mmHg 42%
12:00 +32°C° 0 mm 4 mps 748 mmHg 38%
13:00 +33°C° 0 mm 4 mps 748 mmHg 37%
14:00 +33°C° 0 mm 4 mps 748 mmHg 36%
15:00 +31°C° 0 mm 2 mps 748 mmHg 41%
16:00 +31°C° 0 mm 2 mps 747 mmHg 45%
17:00 +30°C° 0 mm 2 mps 747 mmHg 49%
18:00 +29°C° 0 mm 2 mps 747 mmHg 52%
19:00 +28°C° 0 mm 2 mps 747 mmHg 55%
20:00 +26°C° 0 mm 2 mps 747 mmHg 57%
21:00 +25°C° 0 mm 2 mps 747 mmHg 59%
22:00 +24°C° 0 mm 2 mps 747 mmHg 60%
23:00 +23°C° 0 mm 2 mps 747 mmHg 60%

Tomorrow, 3 August, Tuesday

Time Temperature Precipitation Wind Pressure Humidity
00:00 +23°C° 0 mm 1 mps 747 mmHg 61%
01:00 +21°C° 0 mm 2 mps 747 mmHg 61%
02:00 +21°C° 0 mm 2 mps 747 mmHg 61%
03:00 +21°C° 0 mm 2 mps 747 mmHg 61%
04:00 +23°C° 0 mm 2 mps 747 mmHg 61%
05:00 +24°C° 0 mm 2 mps 746 mmHg 62%
06:00 +24°C° 0 mm 2 mps 746 mmHg 62%
07:00 +27°C° 0 mm 3 mps 746 mmHg 55%
08:00 +29°C° 0 mm 4 mps 746 mmHg 48%
09:00 +32°C° 0 mm 5 mps 746 mmHg 41%
10:00 +33°C° 0 mm 5 mps 746 mmHg 37%
11:00 +35°C° 0 mm 5 mps 746 mmHg 34%
12:00 +36°C° 0 mm 5 mps 746 mmHg 31%
13:00 +36°C° 0 mm 5 mps 745 mmHg 30%
14:00 +37°C° 0 mm 5 mps 745 mmHg 29%
15:00 +37°C° 0 mm 5 mps 745 mmHg 28%
16:00 +34°C° 0.2 mm 5 mps 745 mmHg 38%
17:00 +32°C° 0.2 mm 5 mps 745 mmHg 49%
18:00 +28°C° 0.2 mm 5 mps 745 mmHg 60%
19:00 +25°C° 2.8 mm 4 mps 745 mmHg 69%
20:00 +22°C° 2.8 mm 3 mps 746 mmHg 78%
21:00 +20°C° 2.8 mm 2 mps 746 mmHg 88%
22:00 +19°C° 0 mm 2 mps 746 mmHg 88%
23:00 +19°C° 0 mm 2 mps 746 mmHg 87%

Day after tomorrow, 4 August, Wednesday

Time Temperature Precipitation Wind Pressure Humidity
00:00 +19°C° 0 mm 2 mps 746 mmHg 87%
01:00 +20°C° 0 mm 1 mps 747 mmHg 89%
02:00 +19°C° 0 mm 1 mps 747 mmHg 91%
03:00 +19°C° 0 mm 1 mps 747 mmHg 93%
04:00 +20°C° 0.1 mm 1 mps 747 mmHg 92%
05:00 +20°C° 0.1 mm 1 mps 747 mmHg 92%
06:00 +20°C° 0.1 mm 1 mps 747 mmHg 91%
07:00 +22°C° 0 mm 1 mps 747 mmHg 84%
08:00 +24°C° 0 mm 1 mps 747 mmHg 77%
09:00 +25°C° 0 mm 1 mps 748 mmHg 69%
10:00 +26°C° 0.1 mm 1 mps 747 mmHg 65%
11:00 +27°C° 0.1 mm 1 mps 747 mmHg 61%
12:00 +28°C° 0.1 mm 1 mps 747 mmHg 56%
13:00 +26°C° 2.4 mm 2 mps 747 mmHg 67%
14:00 +24°C° 2.4 mm 2 mps 747 mmHg 78%
15:00 +21°C° 2.4 mm 2 mps 747 mmHg 89%
16:00 +21°C° 0.9 mm 2 mps 747 mmHg 89%
17:00 +21°C° 0.9 mm 1 mps 747 mmHg 90%
18:00 +21°C° 0.9 mm 1 mps 747 mmHg 90%
19:00 +19°C° 0.2 mm 0 mps 748 mmHg 89%
20:00 +18°C° 0.2 mm 0 mps 748 mmHg 88%
21:00 +18°C° 0.2 mm 0 mps 748 mmHg 87%
22:00 +17°C° 0.5 mm 0 mps 748 mmHg 88%
23:00 +19°C° 0.5 mm 1 mps 748 mmHg 89%

5 August, Thursday

Time Temperature Precipitation Wind Pressure Humidity
00:00 +18°C° 0.5 mm 1 mps 748 mmHg 90%
01:00 +18°C° 0 mm 1 mps 748 mmHg 90%
02:00 +18°C° 0 mm 1 mps 748 mmHg 89%
03:00 +18°C° 0 mm 1 mps 748 mmHg 89%
04:00 +18°C° 0 mm 1 mps 749 mmHg 88%
05:00 +18°C° 0 mm 1 mps 749 mmHg 87%
06:00 +19°C° 0 mm 1 mps 749 mmHg 86%
07:00 +19°C° 0 mm 2 mps 749 mmHg 80%
08:00 +20°C° 0 mm 3 mps 750 mmHg 74%
09:00 +21°C° 0 mm 3 mps 750 mmHg 68%
10:00 +22°C° 0.1 mm 4 mps 750 mmHg 64%
11:00 +23°C° 0.1 mm 4 mps 750 mmHg 60%
12:00 +23°C° 0.1 mm 4 mps 750 mmHg 56%
13:00 +25°C° 0 mm 4 mps 750 mmHg 53%
14:00 +25°C° 0 mm 4 mps 750 mmHg 50%
15:00 +25°C° 0 mm 3 mps 750 mmHg 47%
16:00 +24°C° 0 mm 3 mps 751 mmHg 51%
17:00 +22°C° 0 mm 3 mps 751 mmHg 56%
18:00 +21°C° 0 mm 3 mps 751 mmHg 61%
19:00 +19°C° 0 mm 2 mps 751 mmHg 66%
20:00 +18°C° 0 mm 2 mps 751 mmHg 72%
21:00 +16°C° 0 mm 1 mps 751 mmHg 78%
22:00 +16°C° 0 mm 1 mps 751 mmHg 79%
23:00 +15°C° 0 mm 1 mps 751 mmHg 80%

6 August, Friday

Time Temperature Precipitation Wind Pressure Humidity
00:00 +15°C° 0 mm 1 mps 752 mmHg 81%
01:00 +15°C° 0 mm 1 mps 752 mmHg 79%
02:00 +14°C° 0 mm 1 mps 752 mmHg 78%
03:00 +14°C° 0 mm 1 mps 752 mmHg 77%
04:00 +14°C° 0 mm 1 mps 752 mmHg 75%
05:00 +15°C° 0 mm 1 mps 752 mmHg 72%
06:00 +16°C° 0 mm 1 mps 752 mmHg 70%
07:00 +19°C° 0 mm 1 mps 752 mmHg 63%
08:00 +20°C° 0 mm 1 mps 752 mmHg 57%
09:00 +22°C° 0 mm 1 mps 752 mmHg 50%
10:00 +23°C° 0 mm 1 mps 752 mmHg 47%
11:00 +24°C° 0 mm 1 mps 752 mmHg 43%
12:00 +25°C° 0 mm 1 mps 752 mmHg 40%
13:00 +23°C° 0 mm 2 mps 752 mmHg 48%
14:00 +20°C° 0 mm 2 mps 752 mmHg 56%
15:00 +19°C° 0 mm 3 mps 752 mmHg 65%
16:00 +18°C° 0.2 mm 3 mps 752 mmHg 71%
17:00 +17°C° 0.2 mm 2 mps 752 mmHg 77%
18:00 +16°C° 0.2 mm 2 mps 752 mmHg 84%
19:00 +16°C° 0.3 mm 2 mps 752 mmHg 86%
20:00 +15°C° 0.3 mm 2 mps 752 mmHg 89%
21:00 +15°C° 0.3 mm 2 mps 752 mmHg 91%
22:00 +15°C° 0.8 mm 1 mps 752 mmHg 93%
23:00 +15°C° 0.8 mm 1 mps 752 mmHg 94%

7 August, Saturday

Time Temperature Precipitation Wind Pressure Humidity
00:00 +14°C° 0.8 mm 0 mps 752 mmHg 96%
01:00 +15°C° 0.2 mm 1 mps 752 mmHg 96%
02:00 +15°C° 0.2 mm 1 mps 752 mmHg 95%
03:00 +15°C° 0.2 mm 1 mps 752 mmHg 95%
04:00 +15°C° 0 mm 1 mps 752 mmHg 94%
05:00 +15°C° 0 mm 1 mps 752 mmHg 93%
06:00 +15°C° 0 mm 1 mps 752 mmHg 91%
07:00 +17°C° 0 mm 2 mps 752 mmHg 82%
08:00 +18°C° 0 mm 2 mps 753 mmHg 72%
09:00 +20°C° 0 mm 2 mps 753 mmHg 63%
10:00 +21°C° 0 mm 2 mps 753 mmHg 56%
11:00 +23°C° 0 mm 2 mps 753 mmHg 49%
12:00 +24°C° 0 mm 2 mps 752 mmHg 42%
13:00 +24°C° 0 mm 2 mps 752 mmHg 41%
14:00 +25°C° 0 mm 2 mps 752 mmHg 40%
15:00 +25°C° 0 mm 2 mps 752 mmHg 38%
16:00 +24°C° 0 mm 2 mps 752 mmHg 44%
17:00 +23°C° 0 mm 2 mps 752 mmHg 49%
18:00 +21°C° 0 mm 2 mps 753 mmHg 54%
19:00 +20°C° 0 mm 2 mps 753 mmHg 56%
20:00 +19°C° 0 mm 1 mps 753 mmHg 57%
21:00 +18°C° 0 mm 1 mps 753 mmHg 59%
22:00 +16°C° 0 mm 1 mps 753 mmHg 61%
23:00 +15°C° 0 mm 1 mps 753 mmHg 63%
Show more

We Need Your Consent

Meteoprog and our Service Providers may store and access personal data such as cookies, device identifiers or other similar technologies on your device and process such data to personalise content and ads, as well as provide social media features and to analyse the traffic.

  • Store and/or access information on your device

    Cookies, device identifiers or other information can be stored or accessed on your device for the purposes indicated above.

  • Personalised ads and content, ad and content measurement, audience insights, and products development

    Ads and content can be personalised based on a profile. More data can be added to better personalise ads and content. Ad and content performance can be measured. Insights about the audience who saw the ads and content can be derived. Such data can be used to develop or improve user’s experience, systems and software.

By clicking ‘I Agree’ you will allow the use of indicated cookies, device identifiers, web beacons or other similar technologies. Your settings can be changed in the browser on your device.

For certain purposes, legitimate interests may be relied on, rather than consent. You can read more about this in our Privacy and Cookie Policy.